Tracking 30995 objects as of 5-Jul-2025
HD Live streaming from Space Station
objects crossing your sky now

DELTA 1 DEB

Track DELTA 1 DEB now!
10-day predictions


NORAD ID: 13564
Int'l Code: 1978-026FB
Perigee: 793.2 km
Apogee: 1,088.7 km
Inclination: 98.9 °
Period: 103.7 minutes
Semi major axis: 7311 km
RCS: 0.0124 m2 (small)
Launch date: March 5, 1978
Source: United States (US)
Launch site: AIR FORCE WESTERN TEST RANGE (AFWTR)

Note: This is SATELLITE DEBRIS
Your satellite tracking list
Your tracking list is empty




NASA's NSSDC Master Catalog

Two Line Element Set (TLE):
1 13564U 78026FB  25186.40442954  .00000311  00000-0  24900-3 0  9999
2 13564  98.8595 135.9445 0202071 181.7184 299.1452 13.88520467172611
Source of the keplerian elements: AFSPC